Сергиев Посад

Россия / Московская область     56°18′55″N   38°08′09″E
темп.,
°C
ветер,
м/с
пор.,
м/с
влажн.,
%
обл.,
%
осадки,
мм/ч
давл.,
гПа
погр.,
м
17 мая, пн
пн1700:00+12зсз11914 0.0 101410
03:00+12в119245 0.0 101510
06:00+13в239136 0.0 101572
09:00+19в347317 0.0 1015388
12:00+23вюв45496 0.0 10141190
15:00+25вюв464944 0.0 10131432
18:00+24в4962100 0.0 1011704
21:00+18вюв3129245 1.5 1011300
18 мая, вт
вт1800:00+15вюв31291100 0.0 1012246
03:00+14вюв312944 0.0 1011237
06:00+15юв413877 0.0 1011352
09:00+21юв5145611 0.0 1011611
12:00+26юв6123952 0.0 10101290
15:00+27юв511375 0.0 10093056
18:00+24юв5114651 0.0 1009776
21:00+19вюв5166799 0.0 1009587
19 мая, ср
ср1900:00+18юв4157747 0.0 1009464
03:00+15вюв414855 0.0 1009366
06:00+16юв411770 0.0 1009383
09:00+21юв48581 0.0 1009628
12:00+25юв574484 0.0 10091241
15:00+26юв51145100 0.0 10091651
18:00+24ююв5125343 0.0 10081486
21:00+17юв228765 0.5 100912
20 мая, чт
чт2000:00+17всв2395100 5.6 100958
03:00+16св1296100 9.9 100973
06:00+16в4119481 0.3 1008376
09:00+20юв6127420 0.3 1006770
12:00+18ююв3783100 0.4 1005555
15:00+13ююз389678 4.8 1006487
18:00+16ююв5108882 0.6 10071028
21:00+13ююв5129564 1.5 1007558
21 мая, пт
пт2100:00+13ююз51196100 0.1 1008722
03:00+10юз5119498 0.3 1010831
06:00+10юз4118728 0.1 10121058
09:00+14юз6106777 0.1 10141124
12:00+17зюз595438 0.0 10161593
15:00+19зюз4645100 0.0 10161981
18:00+17юз1264100 0.0 1015106
21:00+13юз2796100 1.2 1016269